All
Coldstream Airport (Coldstream, Victoria) YCEM Weather
|
Coldstream, Victoria (YCEM)
Clear skies
Light winds |
|
14 °C |
There is no TAF data available at YCEM or any nearby airports.
Recent YCEM METAR history
| Date | Time (AEST) | Flight Rules | Wind Dir. | Speed | Type | Height AGL (ft) | Visibility | Temp (°C) | Temp (°F) | Dew Point (°C) | Dew Point (°F) | Rel. Humid. | Pressure | Density Altitude | Remarks |
|---|---|---|---|---|---|---|---|---|---|---|---|---|---|---|---|
| 08-May | 12:00 | n/a | 230° | 10 kt | Missing | 14° | 57° | 11° | 51° | 82% | 1023 mb | -76 ft | |||
| 08-May | 11:00 | n/a | 250° | 8 kt | Missing | 14° | 57° | 12° | 53° | 88% | 1023 mb | -76 ft | |||
| 08-May | 10:00 | n/a | 250° | 8 kt | Missing | 13° | 55° | 13° | 55° | 100% | 1022 mb | -167 ft | |||
| 08-May | 09:00 | n/a | 260° | 7 kt | Missing | 13° | 55° | 12° | 53° | 94% | 1022 mb | -167 ft | |||
| 08-May | 08:00 | n/a | 270° | 7 kt | Missing | 12° | 53° | 12° | 53° | 100% | 1021 mb | -257 ft | |||
| 08-May | 07:00 | n/a | 250° | 5 kt | Missing | 12° | 53° | 12° | 53° | 100% | 1021 mb | -257 ft | |||
| 08-May | 06:00 | n/a | 280° | 7 kt | Missing | 13° | 55° | 11° | 51° | 88% | 1020 mb | -108 ft | |||
| 08-May | 05:00 | n/a | 350° | 1 kt | Missing | 12° | 53° | 11° | 51° | 94% | 1020 mb | -228 ft | |||
| 08-May | 04:00 | n/a | 310° | 4 kt | Missing | 12° | 53° | 11° | 51° | 94% | 1020 mb | -228 ft | |||
| 08-May | 03:00 | n/a | 310° | 5 kt | Missing | 12° | 53° | 10° | 50° | 88% | 1020 mb | -228 ft | |||
| 08-May | 02:00 | n/a | 330° | 5 kt | Missing | 11° | 51° | 10° | 50° | 94% | 1020 mb | -348 ft | |||
| 08-May | 01:00 | n/a | 10° | 4 kt | Missing | 10° | 50° | 10° | 50° | 100% | 1020 mb | -468 ft | |||
| 08-May | 00:00 | n/a | 20° | 4 kt | Missing | 10° | 50° | 10° | 50° | 100% | 1021 mb | -497 ft | |||
| 07-May | 23:00 | n/a | 10° | 4 kt | Missing | 10° | 50° | 9° | 48° | 93% | 1022 mb | -527 ft | |||
| 07-May | 22:00 | n/a | 360° | 4 kt | Missing | 9° | 48° | 9° | 48° | 100% | 1022 mb | -647 ft | |||
| 07-May | 21:00 | n/a | 340° | 4 kt | Missing | 9° | 48° | 9° | 48° | 100% | 1022 mb | -647 ft | |||
| 07-May | 20:00 | n/a | 20° | 3 kt | Missing | 9° | 48° | 8° | 46° | 93% | 1022 mb | -647 ft | |||
| 07-May | 19:00 | n/a | 50° | 3 kt | Missing | 9° | 48° | 9° | 48° | 100% | 1022 mb | -647 ft | |||
| 07-May | 18:00 | n/a | 40° | 1 kt | Missing | 9° | 48° | 9° | 48° | 100% | 1022 mb | -647 ft | |||
| 07-May | 17:00 | n/a | 270° | 4 kt | Missing | 10° | 50° | 8° | 46° | 87% | 1022 mb | -527 ft | |||
| 07-May | 16:00 | n/a | 240° | 6 kt | Missing | 10° | 50° | 8° | 46° | 87% | 1022 mb | -527 ft | |||
| 07-May | 15:00 | n/a | 220° | 4 kt | Missing | 10° | 50° | 8° | 46° | 87% | 1022 mb | -527 ft | |||
| 07-May | 14:00 | n/a | 270° | 7 kt | Missing | 10° | 50° | 9° | 48° | 93% | 1021 mb | -497 ft | |||
| 07-May | 13:00 | n/a | 300° | 6 kt | Missing | 9° | 48° | 7° | 44° | 87% | 1022 mb | -647 ft |
Login
| Your browser is unsupported. upgrade your browser |
